QFA2071 YSSY-YCFS

Flight info

Callsign QFA2071
Flight time 0h 48m
Altitude 29000
Route OLSEM Y193 BANDA J70 CFS
Aircraft A21N/M-SDE2E3FGHIRWXY/LB1

Departure

Time 2026-05-06 07:17
Airport Sydney Kingsford Smith International Airport (YSSY)

Arrival

Time 2026-05-06 08:05
Airport Coffs Harbour Airport (YCFS)
Time Latitude Longitude Altitude Speed Heading
2026-05-06 06:59 -33.93155 151.17857 34 ft 0 kts 190°
2026-05-06 07:04 -33.93144 151.17860 33 ft 3 kts 190°
2026-05-06 07:04 -33.93125 151.17863 33 ft 3 kts 190°
2026-05-06 07:04 -33.93107 151.17867 34 ft 3 kts 190°
2026-05-06 07:05 -33.93091 151.17876 30 ft 3 kts 240°
2026-05-06 07:05 -33.93088 151.17892 34 ft 0 kts 281°
2026-05-06 07:07 -33.93086 151.17885 34 ft 4 kts 283°
2026-05-06 07:08 -33.93080 151.17856 34 ft 7 kts 287°
2026-05-06 07:08 -33.93060 151.17785 34 ft 9 kts 283°
2026-05-06 07:08 -33.93036 151.17711 34 ft 10 kts 297°
2026-05-06 07:08 -33.93014 151.17652 32 ft 0 kts 286°
2026-05-06 07:10 -33.93012 151.17646 33 ft 2 kts 283°
2026-05-06 07:10 -33.93009 151.17622 33 ft 4 kts 280°
2026-05-06 07:10 -33.93008 151.17578 33 ft 6 kts 257°
2026-05-06 07:11 -33.93041 151.17540 33 ft 8 kts 205°
2026-05-06 07:11 -33.93101 151.17523 31 ft 11 kts 179°
2026-05-06 07:11 -33.93179 151.17539 33 ft 12 kts 168°
2026-05-06 07:11 -33.93256 151.17559 33 ft 7 kts 167°
2026-05-06 07:12 -33.93312 151.17574 33 ft 9 kts 167°
2026-05-06 07:12 -33.93385 151.17592 33 ft 11 kts 172°
2026-05-06 07:12 -33.93475 151.17586 31 ft 15 kts 178°
2026-05-06 07:12 -33.93583 151.17610 30 ft 17 kts 167°
2026-05-06 07:13 -33.93687 151.17666 29 ft 17 kts 153°
2026-05-06 07:13 -33.93824 151.17718 25 ft 22 kts 150°
2026-05-06 07:13 -33.93943 151.17792 28 ft 19 kts 169°
2026-05-06 07:13 -33.94075 151.17825 27 ft 20 kts 168°
2026-05-06 07:14 -33.94214 151.17863 28 ft 21 kts 167°
2026-05-06 07:14 -33.94363 151.17901 28 ft 23 kts 168°
2026-05-06 07:14 -33.94516 151.17885 26 ft 22 kts 181°
2026-05-06 07:14 -33.94623 151.17910 27 ft 13 kts 168°
2026-05-06 07:15 -33.94718 151.17934 26 ft 16 kts 168°
2026-05-06 07:15 -33.94842 151.17967 28 ft 21 kts 167°
2026-05-06 07:15 -33.94985 151.18004 27 ft 19 kts 168°
2026-05-06 07:15 -33.95098 151.18069 29 ft 18 kts 112°
2026-05-06 07:16 -33.95081 151.18227 28 ft 21 kts 77°
2026-05-06 07:16 -33.95049 151.18405 29 ft 23 kts 77°
2026-05-06 07:16 -33.95013 151.18601 29 ft 25 kts 77°
2026-05-06 07:16 -33.94989 151.18784 27 ft 22 kts 98°
2026-05-06 07:17 -33.95111 151.18872 27 ft 23 kts 168°
2026-05-06 07:17 -33.95426 151.18955 28 ft 83 kts 168°
2026-05-06 07:17 -33.96273 151.19167 44 ft 162 kts 168°
2026-05-06 07:17 -33.97419 151.19504 697 ft 170 kts 153°
2026-05-06 07:18 -33.98343 151.20336 1646 ft 165 kts 125°
2026-05-06 07:18 -33.99069 151.21523 2345 ft 194 kts 124°
2026-05-06 07:18 -33.99920 151.22979 2793 ft 228 kts 124°
2026-05-06 07:18 -34.00954 151.24594 3319 ft 258 kts 134°
2026-05-06 07:19 -34.02316 151.26064 4195 ft 271 kts 141°
2026-05-06 07:19 -34.03789 151.27508 5396 ft 275 kts 142°
2026-05-06 07:19 -34.05290 151.28962 6660 ft 279 kts 143°
2026-05-06 07:19 -34.06816 151.30441 7827 ft 285 kts 142°
2026-05-06 07:20 -34.08379 151.31964 8974 ft 292 kts 142°
2026-05-06 07:20 -34.09981 151.33527 10104 ft 299 kts 142°
2026-05-06 07:20 -34.11651 151.35160 10752 ft 322 kts 143°
2026-05-06 07:20 -34.13398 151.37045 11138 ft 353 kts 129°
2026-05-06 07:21 -34.14493 151.39779 11794 ft 371 kts 102°
2026-05-06 07:21 -34.14581 151.42903 12709 ft 378 kts 79°
2026-05-06 07:21 -34.13686 151.45840 13632 ft 380 kts 56°
2026-05-06 07:21 -34.11927 151.48198 14472 ft 380 kts 33°
2026-05-06 07:22 -34.09572 151.49593 15332 ft 377 kts 12°
2026-05-06 07:22 -34.06995 151.50120 16208 ft 376 kts 355°
2026-05-06 07:22 -34.04454 151.49505 17064 ft 373 kts 334°
2026-05-06 07:22 -34.02255 151.47869 17934 ft 373 kts 321°
2026-05-06 07:23 -34.00005 151.46244 18713 ft 383 kts 336°
2026-05-06 07:23 -33.97360 151.45660 19449 ft 395 kts 356°
2026-05-06 07:23 -33.94634 151.46228 20166 ft 407 kts 17°
2026-05-06 07:23 -33.92124 151.47906 20881 ft 418 kts 34°
2026-05-06 07:24 -33.89819 151.49988 21563 ft 421 kts 31°
2026-05-06 07:24 -33.87298 151.51803 22253 ft 422 kts 24°
2026-05-06 07:24 -33.84618 151.53288 22941 ft 423 kts 18°
2026-05-06 07:24 -33.81860 151.54533 23631 ft 426 kts 15°
2026-05-06 07:25 -33.79030 151.55647 24199 ft 428 kts 13°
2026-05-06 07:25 -33.76166 151.56684 24743 ft 431 kts 12°
2026-05-06 07:25 -33.73264 151.57684 25291 ft 434 kts 11°
2026-05-06 07:25 -33.70348 151.58663 25824 ft 437 kts 11°
2026-05-06 07:26 -33.67409 151.59636 26336 ft 440 kts 11°
2026-05-06 07:26 -33.64433 151.60591 26824 ft 445 kts 12°
2026-05-06 07:26 -33.61614 151.62130 27271 ft 456 kts 25°
2026-05-06 07:26 -33.58924 151.64202 27709 ft 463 kts 30°
2026-05-06 07:27 -33.56301 151.66479 28133 ft 467 kts 31°
2026-05-06 07:27 -33.53680 151.68802 28511 ft 471 kts 31°
2026-05-06 07:27 -33.51009 151.71114 28878 ft 474 kts 29°
2026-05-06 07:27 -33.48185 151.73092 29065 ft 467 kts 18°
2026-05-06 07:28 -33.45120 151.74457 29071 ft 472 kts 11°
2026-05-06 07:28 -33.35497 151.77306 29072 ft 475 kts
2026-05-06 07:29 -33.29118 151.79169 29072 ft 475 kts
2026-05-06 07:29 -33.22706 151.81180 29075 ft 476 kts
2026-05-06 07:30 -33.16288 151.83250 29072 ft 476 kts
2026-05-06 07:30 -33.10964 151.84972 29061 ft 476 kts
2026-05-06 07:31 -33.03526 151.87368 29072 ft 476 kts
2026-05-06 07:31 -32.97116 151.89424 29072 ft 476 kts
2026-05-06 07:32 -32.90712 151.91474 29070 ft 476 kts
2026-05-06 07:32 -32.85392 151.93176 29070 ft 476 kts
2026-05-06 07:33 -32.78983 151.95222 29075 ft 477 kts
2026-05-06 07:33 -32.72565 151.97268 29075 ft 477 kts
2026-05-06 07:34 -32.66188 151.99298 29071 ft 477 kts
2026-05-06 07:34 -32.59778 152.01337 29074 ft 477 kts
2026-05-06 07:35 -32.53369 152.03372 29074 ft 477 kts
2026-05-06 07:35 -32.46993 152.05451 29072 ft 477 kts
2026-05-06 07:36 -32.40579 152.07465 29077 ft 476 kts
2026-05-06 07:36 -32.34175 152.09460 29079 ft 476 kts
2026-05-06 07:37 -32.27763 152.11470 29076 ft 476 kts
2026-05-06 07:37 -32.21359 152.13483 29071 ft 476 kts
2026-05-06 07:38 -32.14973 152.15493 29077 ft 475 kts
2026-05-06 07:38 -32.08619 152.17492 29078 ft 475 kts
2026-05-06 07:39 -32.02229 152.19499 29078 ft 475 kts
2026-05-06 07:39 -31.95840 152.21502 29077 ft 475 kts
2026-05-06 07:40 -31.89464 152.23495 29080 ft 474 kts
2026-05-06 07:40 -31.83069 152.25494 29076 ft 475 kts
2026-05-06 07:41 -31.76714 152.27476 29062 ft 475 kts
2026-05-06 07:41 -31.70329 152.29463 29085 ft 474 kts
2026-05-06 07:42 -31.63962 152.31446 29079 ft 474 kts
2026-05-06 07:42 -31.57582 152.33432 29077 ft 474 kts
2026-05-06 07:43 -31.51206 152.35408 29083 ft 473 kts
2026-05-06 07:43 -31.44849 152.37376 29085 ft 472 kts
2026-05-06 07:44 -31.38496 152.39340 29087 ft 472 kts
2026-05-06 07:44 -31.32173 152.41293 29055 ft 472 kts
2026-05-06 07:45 -31.25798 152.43249 29092 ft 474 kts
2026-05-06 07:45 -31.19409 152.45219 29087 ft 475 kts
2026-05-06 07:46 -31.13008 152.47203 29082 ft 476 kts
2026-05-06 07:46 -31.06647 152.49149 29083 ft 475 kts
2026-05-06 07:47 -31.00249 152.51113 29089 ft 474 kts
2026-05-06 07:47 -30.97081 152.52087 28729 ft 465 kts
2026-05-06 07:47 -30.93963 152.53048 27678 ft 462 kts
2026-05-06 07:48 -30.90845 152.54001 26567 ft 463 kts
2026-05-06 07:48 -30.87746 152.54946 25627 ft 459 kts
2026-05-06 07:48 -30.84674 152.55883 24753 ft 454 kts
2026-05-06 07:48 -30.81633 152.56818 23926 ft 450 kts 10°
2026-05-06 07:49 -30.78740 152.58254 22954 ft 458 kts 26°
2026-05-06 07:49 -30.76271 152.60608 22029 ft 463 kts 41°
2026-05-06 07:49 -30.74212 152.63415 21217 ft 460 kts 47°
2026-05-06 07:49 -30.72307 152.66383 20373 ft 455 kts 49°
2026-05-06 07:50 -30.70449 152.69328 19542 ft 449 kts 49°
2026-05-06 07:50 -30.68573 152.72189 18766 ft 441 kts 47°
2026-05-06 07:50 -30.66666 152.74947 17899 ft 435 kts 46°
2026-05-06 07:50 -30.64739 152.77612 17003 ft 427 kts 45°
2026-05-06 07:51 -30.62812 152.80203 16190 ft 420 kts 45°
2026-05-06 07:51 -30.60921 152.82708 15770 ft 404 kts 45°
2026-05-06 07:51 -30.59097 152.85112 15286 ft 391 kts 45°
2026-05-06 07:51 -30.57310 152.87463 14652 ft 383 kts 45°
2026-05-06 07:52 -30.55555 152.89768 13991 ft 378 kts 45°
2026-05-06 07:52 -30.53848 152.92011 13254 ft 373 kts 45°
2026-05-06 07:52 -30.52134 152.94267 12463 ft 370 kts 46°
2026-05-06 07:52 -30.50440 152.96498 11687 ft 367 kts 46°
2026-05-06 07:53 -30.48754 152.98720 10939 ft 364 kts 46°
2026-05-06 07:53 -30.47111 153.00887 10367 ft 361 kts 46°
2026-05-06 07:53 -30.45452 153.03072 10066 ft 361 kts 46°
2026-05-06 07:53 -30.43794 153.05256 9993 ft 360 kts 46°
2026-05-06 07:54 -30.42133 153.07444 9986 ft 360 kts 46°
2026-05-06 07:54 -30.40484 153.09615 9875 ft 356 kts 46°
2026-05-06 07:54 -30.38862 153.11752 9172 ft 351 kts 46°
2026-05-06 07:54 -30.37278 153.13836 8781 ft 336 kts 46°
2026-05-06 07:55 -30.35777 153.15814 8538 ft 318 kts 46°
2026-05-06 07:55 -30.34336 153.17709 8062 ft 310 kts 46°
2026-05-06 07:55 -30.32926 153.19560 7355 ft 312 kts 46°
2026-05-06 07:55 -30.31486 153.21443 6641 ft 313 kts 46°
2026-05-06 07:56 -30.30041 153.23331 5888 ft 313 kts 46°
2026-05-06 07:56 -30.28599 153.25218 5222 ft 310 kts 46°
2026-05-06 07:56 -30.27181 153.27075 4599 ft 305 kts 46°
2026-05-06 07:56 -30.25786 153.28903 3970 ft 300 kts 47°
2026-05-06 07:57 -30.24420 153.30690 3380 ft 290 kts 47°
2026-05-06 07:57 -30.23143 153.32363 3049 ft 263 kts 47°
2026-05-06 07:57 -30.22014 153.33842 2988 ft 233 kts 46°
2026-05-06 07:57 -30.20755 153.34809 3010 ft 211 kts 11°
2026-05-06 07:58 -30.19391 153.34577 3005 ft 194 kts 328°
2026-05-06 07:58 -30.18607 153.33386 3004 ft 186 kts 294°
2026-05-06 07:58 -30.18217 153.32062 2983 ft 161 kts 288°
2026-05-06 07:58 -30.17910 153.30890 2999 ft 145 kts 289°
2026-05-06 07:59 -30.17614 153.29836 2999 ft 135 kts 291°
2026-05-06 07:59 -30.17311 153.28814 2987 ft 134 kts 289°
2026-05-06 07:59 -30.17232 153.27738 2977 ft 137 kts 261°
2026-05-06 07:59 -30.17693 153.26793 2981 ft 136 kts 228°
2026-05-06 08:00 -30.18391 153.26066 2969 ft 134 kts 223°
2026-05-06 08:00 -30.19118 153.25356 2603 ft 141 kts 222°
2026-05-06 08:00 -30.19876 153.24613 2210 ft 143 kts 221°
2026-05-06 08:00 -30.20617 153.23882 1949 ft 135 kts 222°
2026-05-06 08:01 -30.21314 153.23191 1948 ft 131 kts 221°
2026-05-06 08:01 -30.22007 153.22501 1979 ft 132 kts 222°
2026-05-06 08:01 -30.22702 153.21807 1987 ft 132 kts 221°
2026-05-06 08:01 -30.23386 153.21124 1988 ft 132 kts 222°
2026-05-06 08:02 -30.24079 153.20430 1994 ft 132 kts 222°
2026-05-06 08:02 -30.24773 153.19735 1993 ft 132 kts 222°
2026-05-06 08:02 -30.25473 153.19033 1881 ft 134 kts 221°
2026-05-06 08:02 -30.26178 153.18326 1698 ft 134 kts 221°
2026-05-06 08:03 -30.26883 153.17619 1481 ft 134 kts 221°
2026-05-06 08:03 -30.27588 153.16912 1338 ft 134 kts 221°
2026-05-06 08:03 -30.28292 153.16205 1142 ft 133 kts 221°
2026-05-06 08:03 -30.28991 153.15504 952 ft 132 kts 220°
2026-05-06 08:04 -30.29683 153.14810 796 ft 131 kts 221°
2026-05-06 08:04 -30.30392 153.14097 621 ft 142 kts 221°
2026-05-06 08:04 -30.31161 153.13325 406 ft 148 kts 221°
2026-05-06 08:04 -30.31926 153.12559 214 ft 141 kts 222°
2026-05-06 08:05 -30.32640 153.11834 29 ft 134 kts 221°
2026-05-06 08:05 -30.33199 153.11285 26 ft 71 kts 221°
2026-05-06 08:05 -30.33538 153.10952 23 ft 61 kts 221°
2026-05-06 08:05 -30.33807 153.10660 21 ft 19 kts 226°
2026-05-06 08:06 -30.33845 153.10644 20 ft 0 kts 154°
2026-05-06 08:06 -30.33846 153.10648 20 ft 0 kts 123°
2026-05-06 08:06 -30.33846 153.10651 22 ft 0 kts 97°
2026-05-06 08:06 -30.33845 153.10653 22 ft 0 kts 74°
2026-05-06 08:07 -30.33833 153.10664 22 ft 8 kts 35°
2026-05-06 08:07 -30.33780 153.10714 21 ft 11 kts 41°
2026-05-06 08:07 -30.33712 153.10781 18 ft 14 kts 40°
2026-05-06 08:07 -30.33631 153.10860 22 ft 15 kts 40°
2026-05-06 08:08 -30.33548 153.10941 23 ft 16 kts 40°
2026-05-06 08:08 -30.33459 153.11030 24 ft 18 kts 42°
2026-05-06 08:08 -30.33368 153.11120 29 ft 17 kts 40°
2026-05-06 08:08 -30.33273 153.11213 28 ft 19 kts 40°
2026-05-06 08:09 -30.33166 153.11320 28 ft 21 kts 40°
2026-05-06 08:09 -30.33047 153.11436 25 ft 24 kts 40°
2026-05-06 08:09 -30.32913 153.11569 23 ft 26 kts 41°
2026-05-06 08:09 -30.32771 153.11709 23 ft 28 kts 40°
2026-05-06 08:10 -30.32648 153.11830 26 ft 19 kts 40°
2026-05-06 08:10 -30.32547 153.11911 27 ft 9 kts 352°
2026-05-06 08:10 -30.32496 153.11865 28 ft 10 kts 311°
2026-05-06 08:10 -30.32451 153.11804 29 ft 10 kts 310°
2026-05-06 08:11 -30.32402 153.11737 30 ft 12 kts 311°
2026-05-06 08:11 -30.32353 153.11664 28 ft 6 kts 308°
2026-05-06 08:11 -30.32323 153.11639 28 ft 0 kts 339°
2026-05-06 08:11 -30.32316 153.11636 28 ft 0 kts 339°
2026-05-06 08:12 -30.32315 153.11636 28 ft 0 kts 339°